Location: Kimberly
(42.5380°N, 114.3640°W)
Time: 17:49:45
(UTC-06:00)

OTV 5 (USA 277) - Visible Passes

Search period start: 23 September 2017 00:00
Search period end: 03 October 2017 00:00
Orbit: 404 x 417 km, 43.0° (Epoch: 07 September)

Date Brightness Start Highest point End Pass type
(mag) Time Alt. Az. Time Alt. Az. Time Alt. Az.
23 Sep ? 05:44:57 81° SW 05:45:05 85° SSE 05:48:22 10° E visible
24 Sep ? 04:56:18 18° E 04:56:18 18° E 04:57:18 10° E visible
24 Sep ? 06:29:03 18° W 06:31:21 81° N 06:34:38 10° E visible
25 Sep ? 05:40:25 77° NE 05:40:25 77° NE 05:43:33 10° E visible
26 Sep ? 04:51:49 15° E 04:51:49 15° E 04:52:30 10° E visible
26 Sep ? 06:24:35 22° W 06:26:33 81° SSW 06:29:50 10° ESE visible
27 Sep ? 05:36:02 59° E 05:36:02 59° E 05:38:47 10° E visible
28 Sep ? 04:47:33 11° E 04:47:33 11° E 04:47:42 10° E visible
28 Sep ? 06:20:19 28° W 06:21:40 48° SSW 06:24:50 10° SE visible
29 Sep ? 05:31:55 32° SE 05:31:55 32° SE 05:33:53 10° ESE visible
30 Sep ? 06:16:25 25° SW 06:16:39 25° SSW 06:19:24 10° SSE visible
01 Oct ? 05:28:15 13° SE 05:28:15 13° SE 05:28:43 10° SE visible
